Home   Weather   Peine   Past weeks

Flag for Germany Past Weather in Peine, Lower Saxony, Germany — Yesterday and Last 2 Weeks

Now
54 °F

Fog.


Feels Like: 53 °F
Forecast: 61 / 74 °F
Wind: 5 mph from South

Location: Celle Airport

Current Time: Sep 28, 2016 at 3:54:49 AM

Latest Report: Sep 28, 2016 at 3:20 AM


Visibility: N/A

Pressure: 30.21 "Hg

Humidity: 88%

Dew Point: 50 °F

Location of PeineLocation

Past Weather in Peine — Graph

°F

Peine Temperature Yesterday

Maximum temperature yesterday: 72 °F (at 4:20 PM)
Minimum temperature yesterday: 48 °F (at 7:20 AM)
Average temperature yesterday: 58 °F

High & Low Weather Summary for the Past Weeks

 TemperatureHumidityPressure
High88 °F (Sep 13, 2:20 PM)100% (Sep 17, 6:20 AM)30.30 "Hg (Sep 17, 6:20 AM)
Low43 °F (Sep 24, 6:20 AM)27% (Sep 13, 5:20 PM)29.89 "Hg (Sep 15, 5:20 PM)
Average62 °F73%30.09 "Hg
* Reported Sep 13 2:20 AM — Sep 28 2:20 AM, Peine, Weather by CustomWeather, © 2016

Note: Actual official high and low records may vary slightly from our data, if they occured in-between our weather recording intervals... More about our weather records

Advertising

Peine Weather History for the Previous 24 Hours

Scroll right to see more
 ConditionsComfort  
Time TempWeatherWind HumidityBarometerVisibility
2:20 AM
Wed, Sep 28
52 °FFog.No wind88%30.24 "HgN/A
1:20 AM54 °FFog.1 mph88%30.24 "HgN/A
12:20 AM52 °FFog.No wind94%30.24 "HgN/A
11:20 PM
Tue, Sep 27
54 °FPassing clouds.No wind88%30.27 "HgN/A
10:20 PM54 °FPassing clouds.No wind94%30.27 "HgN/A
9:20 PM55 °FPassing clouds.No wind82%30.27 "HgN/A
8:20 PM59 °FPassing clouds.No wind72%30.27 "HgN/A
7:20 PM63 °FPassing clouds.No wind64%30.27 "HgN/A
6:20 PM68 °FScattered clouds.5 mph49%30.27 "HgN/A
5:20 PM70 °FScattered clouds.6 mph50%30.27 "HgN/A
4:20 PM72 °FScattered clouds.6 mph47%30.27 "HgN/A
3:20 PM70 °FScattered clouds.3 mph50%30.30 "HgN/A
2:20 PM68 °FPartly sunny.5 mph53%30.30 "HgN/A
1:20 PM68 °FPassing clouds.5 mph56%30.30 "HgN/A
12:20 PM66 °FPassing clouds.6 mph56%30.30 "HgN/A
11:20 AM64 °FPassing clouds.5 mph68%30.30 "HgN/A
10:20 AM59 °FPassing clouds.2 mph82%30.30 "HgN/A
9:20 AM52 °FScattered clouds.No wind94%30.27 "HgN/A
8:20 AM48 °FFog.No wind100%30.30 "HgN/A
7:55 AM48 °FFog.No wind100%30.30 "Hg5 mi
7:20 AM48 °FFog.No wind100%30.27 "Hg0 mi
6:20 AM50 °FFog.1 mph100%30.27 "Hg1 mi
5:20 AM50 °FFog.1 mph100%30.24 "HgN/A
4:20 AM52 °FFog.1 mph100%30.24 "HgN/A
3:20 AM54 °FFog.2 mph94%30.24 "HgN/A
Weather by CustomWeather, © 2016

See weather overviewHow to use our weather pages